This demonstration page uses our WeatherBlox Daily Observations layout. Learn more.

Left ArrowRight Arrow

39.08367, -84.50855

Hourly Observations for November 2, 2022

Temp ( °F °C ) Dew Point ( °F °C ) Humidity (%) Winds ( mph kmh ) Pressure ( in mb ) Visibility ( mi km ) Precip ( " mm )
12:02 am 00:02 Clear with Mist and Fog 48 8.9 48 8.9 100 100 Calm 30.31 1026 1 1 0.00 0.00
12:22 am 00:22 Mostly Clear with Fog 46 7.8 46 7.8 100 100 Calm 30.31 1027 0 0 0.00 0.00
12:53 am 00:53 Mostly Clear with Fog 46 7.8 46 7.8 100 100 Calm 30.29 1026 0 0 0.00 0.00
1:03 am 01:03 Mostly Clear with Fog 45 7.2 45 7.2 100 100 Calm 30.30 1026 0 0 0.00 0.00
1:46 am 01:46 Mostly Clear with Fog 45 7.2 45 7.2 100 100 Calm 30.31 1027 0 0 0.00 0.00
1:53 am 01:53 Mostly Clear with Fog 46 7.8 46 7.8 100 100 Calm 30.30 1026 0 0 0.00 0.00
2:21 am 02:21 Mostly Clear with Fog 44 6.7 44 6.7 100 100 Calm 30.32 1027 0 0 0.00 0.00
2:53 am 02:53 Mostly Clear with Fog 45 7.2 45 7.2 100 100 Calm 30.31 1027 0 0 0.00 0.00
3:53 am 03:53 Mostly Clear with Fog 47 8.3 47 8.3 100 100 Calm 30.31 1027 0 0 0.00 0.00
4:28 am 04:28 Mostly Clear with Fog 47 8.3 47 8.3 100 100 Calm 30.33 1027 0 0 0.00 0.00
4:53 am 04:53 Mostly Clear with Fog 47 8.3 47 8.3 100 100 Calm 30.32 1027 0 0 0.00 0.00
5:23 am 05:23 Mostly Clear with Fog 47 8.3 47 8.3 100 100 Calm 30.34 1027 0 0 0.00 0.00
5:53 am 05:53 Mostly Clear with Fog 47 8.3 47 8.3 100 100 Calm 30.33 1027 0 0 0.00 0.00
6:53 am 06:53 Mostly Clear with Fog 46 7.8 46 7.8 100 100 Calm 30.35 1028 0 0 0.00 0.00
7:53 am 07:53 Mostly Clear with Fog 45 7.2 45 7.2 100 100 Calm 30.35 1028 0 0 0.00 0.00
8:53 am 08:53 Partly Cloudy with Fog 47 8.3 47 8.3 100 100 Calm 30.37 1028 0 0 0.00 0.00
9:53 am 09:53 Partly Cloudy with Fog 48 8.9 48 8.9 100 100 Calm 30.39 1029 0 0 0.00 0.00
10:44 am 10:44 Mostly Cloudy with Mist and Fog 49 9.4 49 9.4 100 100 Calm 30.40 1029 1 1 0.00 0.00
10:53 am 10:53 Mostly Cloudy with Mist and Fog 50 10 49 9.4 96 96 Calm 30.39 1029 1 2 0.00 0.00
11:06 am 11:06 Mostly Cloudy with Patchy Fog 49 9.4 49 9.4 100 100 Calm 30.39 1029 2 3 0.00 0.00
11:49 am 11:49 Partly Cloudy with Mist and Fog 52 11 52 11 100 100 Calm 30.37 1029 3 5 0.00 0.00
11:53 am 11:53 Partly Cloudy with Mist and Fog 52 11.1 51 10.6 97 97 Calm 30.37 1029 3 5 0.00 0.00
12:53 pm 12:53 Sunny with Mist and Fog 56 13.3 54 12.2 93 93 Calm 30.35 1028 6 10 0.00 0.00
1:53 pm 13:53 Sunny 59 15 54 12.2 83 83 Calm 30.33 1027 7 11 0.00 0.00
2:53 pm 14:53 Sunny 62 16.7 54 12.2 75 75 Calm 30.31 1026 6 10 0.00 0.00
3:53 pm 15:53 Partly Cloudy 65 18.3 53 11.7 65 65 Calm 30.30 1026 8 13 0.00 0.00
4:53 pm 16:53 Mostly Sunny 65 18.3 54 12.2 68 68 SSW 3 6 30.30 1026 10 16 0.00 0.00
5:53 pm 17:53 Sunny 63 17.2 55 12.8 75 75 Calm 30.29 1026 10 16 0.00 0.00
6:53 pm 18:53 Clear 59 15 54 12.2 83 83 Calm 30.29 1026 10 16 0.00 0.00
7:53 pm 19:53 Clear 55 12.8 53 11.7 93 93 Calm 30.29 1026 10 16 0.00 0.00
8:53 pm 20:53 Clear 54 12.2 53 11.7 97 97 Calm 30.29 1026 8 13 0.00 0.00
9:53 pm 21:53 Clear 54 12.2 53 11.7 97 97 Calm 30.30 1026 7 11 0.00 0.00
10:53 pm 22:53 Clear with Mist and Fog 53 11.7 53 11.7 100 100 Calm 30.30 1026 4 6 0.00 0.00
11:53 pm 23:53 Clear with Mist and Fog 52 11.1 52 11.1 100 100 Calm 30.30 1026 4 6 0.00 0.00

Powered by AerisWeather